This is the latest recevied weather packets stored in our database for station/object W3JGB. If no packets are shown the sender has not sent any weather packets the latest 10 day(s).
| Time | Temp. | Humidity | Pressure | Rain* | Wind** | Luminosity | Snow |
|---|---|---|---|---|---|---|---|
| 1777993594 | 25° C | 51% | 1008.2 hPa | 0 mm | - | 162 W/m² | - |
| 1777993291 | 25° C | 49% | 1008.2 hPa | 0 mm | - | 126 W/m² | - |
| 1777992987 | 24.44° C | 49% | 1007.9 hPa | 0 mm | - | 640 W/m² | - |
| 1777992686 | 24.44° C | 51% | 1008.2 hPa | 0 mm | - | 646 W/m² | - |
| 1777992383 | 24.44° C | 51% | 1008.4 hPa | 0 mm | - | 541 W/m² | - |
| 1777992080 | 23.89° C | 52% | 1008.4 hPa | 0 mm | - | 513 W/m² | - |
| 1777991778 | 23.89° C | 51% | 1008.2 hPa | 0 mm | - | 430 W/m² | - |
| 1777991475 | 23.89° C | 52% | 1008.2 hPa | 0 mm | - | 397 W/m² | - |
| 1777991172 | 23.89° C | 52% | 1008.2 hPa | 0 mm | - | 437 W/m² | - |
| 1777990869 | 23.89° C | 52% | 1008 hPa | 0 mm | - | 471 W/m² | - |
| 1777990567 | 23.89° C | 52% | 1008.1 hPa | 0 mm | - | 325 W/m² | - |
| 1777989960 | 22.78° C | 51% | 1008.2 hPa | 0 mm | - | 282 W/m² | - |
| 1777989656 | 23.33° C | 53% | 1008.2 hPa | 0 mm | - | 315 W/m² | - |
| 1777989353 | 23.33° C | 54% | 1008.2 hPa | 0 mm | - | 247 W/m² | - |
| 1777989049 | 23.33° C | 52% | 1008.4 hPa | 0 mm | - | 393 W/m² | - |
| 1777988745 | 22.78° C | 53% | 1008.5 hPa | 0 mm | - | 548 W/m² | - |
| 1777988443 | 23.33° C | 53% | 1008.4 hPa | 0 mm | - | 486 W/m² | - |
| 1777988139 | 22.78° C | 54% | 1008.2 hPa | 0 mm | - | 424 W/m² | - |
| 1777987835 | 22.78° C | 56% | 1008.4 hPa | 0 mm | - | 453 W/m² | - |
| 1777987532 | 22.78° C | 57% | 1008.5 hPa | 0 mm | - | 388 W/m² | - |
| 1777987230 | 22.22° C | 55% | 1008.5 hPa | 0 mm | - | 480 W/m² | - |
| 1777986926 | 21.67° C | 59% | 1008.4 hPa | 0 mm | - | 413 W/m² | - |
| 1777986624 | 21.67° C | 57% | 1008.2 hPa | 0 mm | - | 303 W/m² | - |
| 1777986322 | 21.67° C | 58% | 1008.6 hPa | 0 mm | - | 334 W/m² | - |
| 1777986020 | 21.67° C | 62% | 1008.5 hPa | 0 mm | - | 288 W/m² | - |
* Rain latest hour (hover to see other rain measurements)
** Current wind speed in m/s (hover to see current wind gust speed)